User: anonymous   Login
Location: ?????????
(55.6553°N, 38.9075°E)
Time: 11:28:50
(UTC+00:00)
Language:

Aureole 1 Rocket - Orbit

View from above orbital plane
View from above orbital plane
View from above satellite
View from above satellite

Ground track
Ground track

The orbit data is extracted from the following two-line orbital elements,

1  5730U 71119B   19344.49364833 +.00001045 +00000-0 +69762-4 0  9999
2  5730 073.8928 333.0544 0690647 035.7283 328.8083 14.03771475332791
Epoch (UTC): 10 December 2019 11:50:51
Eccentricity: 0.0690647
inclination: 73.8928°
perigee height: 379 km
apogee height: 1382 km
right ascension of ascending node: 333.0544°
argument of perigee: 35.7283°
revolutions per day: 14.03771475
mean anomaly at epoch: 328.8083°
orbit number at epoch: 33279

The dashed part of the orbit path shows where the satellite is in the earth's shadow,  

DLR